Location: Clanezzo
(45.7500°N, 9.6000°E)
Time: 02:56:44
(UTC+00:00)

Cosmos 1943 Rocket - Pass Details

Date: 12 May 2021
Orbit: 814 x 842 km, 71.0° (Epoch: 18 June)

Event Time Altitude Azimuth Distance (km) Brightness Sun altitude
Exits shadow 23:35:54 11° 264° (W) 2,366 4.4 -25.7°
Maximum altitude 23:39:56 22° 313° (NW) 1,731 4.2 -25.7°
Drops below altitude 10° 23:44:16 10° 4° (N) 2,442 5.6 -25.6°
Sets 23:47:15 0° 19° (NNE) 3,373 6.6 -25.5°
